Overview Statistics Trail Chart Weather Telemetry Raw packets
 

This is the latest recevied weather packets stored in our database for station/object WA6OOO. If no packets are shown the sender has not sent any weather packets the latest 10 day(s).

<< 80 81 82 83 84 85 86 >>
Time Temp. Humidity Pressure Rain* Wind** Luminosity Snow
1788091666 18.33° C 90% 1014.6 hPa 0 mm - 0 W/m² -
1788091362 18.33° C 90% 1014.6 hPa 0 mm - 0 W/m² -
1788091058 18.89° C 90% 1014.5 hPa 0 mm - 0 W/m² -
1788090753 18.89° C 90% 1014.6 hPa 0 mm - 0 W/m² -
1788090450 18.33° C 89% 1014.6 hPa 0 mm - 0 W/m² -
1788090150 18.33° C 88% 1014.7 hPa 0 mm - 0 W/m² -
1788089845 19.44° C 89% 1014.5 hPa 0 mm - 0 W/m² -
1788089540 19.44° C 89% 1014.7 hPa 0 mm - 0 W/m² -
1788089235 19.44° C 89% 1014.5 hPa 0 mm - 0 W/m² -
1788088932 19.44° C 89% 1014.5 hPa 0 mm - 0 W/m² -
1788088628 19.44° C 88% 1014.6 hPa 0 mm - 0 W/m² -
1788088323 19.44° C 88% 1014.3 hPa 0 mm - 0 W/m² -
1788088017 19.44° C 88% 1014.5 hPa 0 mm - 0 W/m² -
1788087714 19.44° C 88% 1014.6 hPa 0 mm - 0 W/m² -
1788087413 20° C 88% 1014.6 hPa 0 mm - 0 W/m² -
1788087109 20° C 88% 1014.3 hPa 0 mm - 0 W/m² -
1788086806 19.44° C 88% 1014.5 hPa 0 mm - 0 W/m² -
1788086503 20° C 88% 1014.6 hPa 0 mm - 0 W/m² -
1788086201 19.44° C 88% 1014.5 hPa 0 mm - 0 W/m² -
1788085897 20° C 88% 1014.6 hPa 0 mm - 0 W/m² -
1788085595 20° C 89% 1014.3 hPa 0 mm - 0 W/m² -
1788085291 20° C 89% 1014.5 hPa 0 mm - 0 W/m² -
1788084986 20° C 90% 1014.5 hPa 0 mm - 0 W/m² -
1788084681 19.44° C 90% 1014.2 hPa 0 mm - 0 W/m² -
1788084381 19.44° C 90% 1014.3 hPa 0 mm - 0 W/m² -

* Rain latest hour (hover to see other rain measurements)
** Current wind speed in m/s (hover to see current wind gust speed)